Starlink 31740

operational
NORAD ID: 59433 Int'l Des: 2024-065 Owner: SPXS Country: US Constellation: starlink
LEOCIRCULAR

Starlink 31740について

説明を読み込み中...

リアルタイム位置

3D地球を読み込み中...

次回通過

高度履歴

Altitude vs Time

uPlot chart will show altitude changes over time

軌道要素

1 59433U 24065N 25353.22511530 -.00000609 00000-0 -84459-5 0 9990
2 59433 53.1622 297.2961 0001460 75.3265 284.7897 15.30182346 96586
Epoch: Dec 19, 2025 • Age: 24 hours

現在のステータス

高度 476.6 km
速度 7.63 km/s
衛星直下点 32.49°N, 155.5°E
打ち上げ日 Apr 7, 2024
運用期間 1.7 years
タイプ internet

技術仕様

分類 Payload
質量 730.00 kg
乾燥質量 700.00 kg
総質量 730.00 kg
長さ 0.30 m
直径 4.10 m
スパン 29.00 m
形状 Box + pan
製造者 SPXS
バスタイプ Starlink V2M
フェーズステータス In Orbit
所有者/国 SPXS/US

大規模コンステレーション

Loading constellations...